Westport (NZWS)

Aerodrome — Elev 13
New Zealand
S041.44.17.002 E171.34.50.999
Loading chart...

Current Weather

NZWS 220830Z 07004KT 20KM OVC014 11/09 Q1017 RMK AUTO NZHK VATSIM USE ONLY

Published 49 minutes ago

Airport Activity

Loading chart...
Loading chart...

Standard ATC Positions

CallsignRadio Name / Freq / Voice Room / TypeFrequencyVoice RoomType
NZCH-T_CTR Christchurch Control
123.700
nzch-t_ctr
123.700nzch-t_ctr
UNICOM NZZC UNICOM
122.800
unicom_nzzc
122.800unicom_nzzc

Charts

Departure Charts

Departure